Weather History for Eagle River, WI

Change the Weather History Date:

Sunday, August 5, 2012

  Actual Average Record
Temperature  
Mean Temperature 60 °F -  
Max Temperature 69 °F 69 °F 89 °F (2001)
Min Temperature 50 °F 47 °F 37 °F (2004)
Degree Days  
Heating Degree Days 6    
Growing Degree Days 10 (Base 50)    
Moisture  
Dew Point 48 °F    
Average Humidity 66    
Maximum Humidity 100    
Minimum Humidity 35    
Precipitation  
Precipitation 0.01 in - - ()
Sea Level Pressure  
Sea Level Pressure 30.03 in    
Wind  
Wind Speed 9 mph (WNW)    
Max Wind Speed 16 mph    
Max Gust Speed 33 mph    
Visibility 10 miles    
Events Rain    
Averages and records for this station are not official NWS values.
T = Trace of Precipitation, MM = Missing Value Source: NWS Daily Summary

Daily Weather History Graph

Daily Weather History Graph

Search for Another Location

Airport:

Trip Planner

Search our weather history database for the weather conditions in past years. The results will help you decide how hot, cold, wet, or windy it might be!

Date:

Astronomy

Aug. 05, 2012 Rise Set
Actual Time 5:45 AM CDT 8:20 PM CDT
Civil Twilight 5:11 AM CDT 8:53 PM CDT
Nautical Twilight 4:28 AM CDT 9:36 PM CDT
Astronomical Twilight 3:39 AM CDT 10:24 PM CDT
Moon 9:40 PM CDT (8/5) 9:50 AM CDT (8/5)
Length of Visible Light 15h 42m
Length of Day
14h 35m
Waning Gibbous, 86% of the Moon is Illuminated
Aug 5
Waning Gibbous
Aug 9
Last Quarter
Aug 17
New
Aug 24
First Quarter
Aug 31
Full

Hourly Weather History & Observations

Time (CDT) Temp. Dew Point Humidity Pressure Visibility Wind Dir Wind Speed Gust Speed Precip Events Conditions
12:15 AM 59.0 °F 57.2 °F 94% 29.84 in 10.0 mi WSW 5.8 mph - N/A   Mostly Cloudy
12:35 AM 60.8 °F 53.6 °F 77% 29.84 in 10.0 mi WSW 6.9 mph - N/A   Scattered Clouds
12:55 AM 60.8 °F 53.6 °F 77% 29.84 in 10.0 mi West 8.1 mph - N/A   Clear
1:15 AM 60.8 °F 53.6 °F 77% 29.85 in 10.0 mi WSW 6.9 mph - N/A   Clear
1:35 AM 60.8 °F 53.6 °F 77% 29.86 in 10.0 mi West 8.1 mph - N/A   Clear
1:55 AM 60.8 °F 53.6 °F 77% 29.87 in 10.0 mi WNW 8.1 mph - N/A   Mostly Cloudy
2:15 AM 60.8 °F 53.6 °F 77% 29.87 in 10.0 mi West 10.4 mph - N/A   Scattered Clouds
2:35 AM 60.8 °F 53.6 °F 77% 29.88 in 10.0 mi West 9.2 mph - N/A   Scattered Clouds
2:55 AM 60.8 °F 53.6 °F 77% 29.88 in 10.0 mi West 8.1 mph 20.7 mph N/A   Mostly Cloudy
3:15 AM 59.0 °F 53.6 °F 82% 29.89 in 10.0 mi West 8.1 mph - N/A   Overcast
3:35 AM 59.0 °F 53.6 °F 82% 29.89 in 7.0 mi NW 11.5 mph 17.3 mph N/A Rain Heavy Rain
3:55 AM 57.2 °F 53.6 °F 88% 29.90 in 10.0 mi NW 9.2 mph 19.6 mph 0.01 in Rain Rain
4:15 AM 55.4 °F 53.6 °F 94% 29.91 in 10.0 mi NW 9.2 mph - N/A   Mostly Cloudy
4:35 AM 55.4 °F 51.8 °F 88% 29.91 in 10.0 mi WNW 8.1 mph - N/A   Scattered Clouds
4:55 AM 55.4 °F 50.0 °F 82% 29.92 in 7.0 mi NW 13.8 mph 20.7 mph N/A Rain Rain
5:15 AM 53.6 °F 51.8 °F 94% 29.93 in 10.0 mi WNW 11.5 mph 16.1 mph N/A   Overcast
5:35 AM 55.4 °F 50.0 °F 82% 29.94 in 10.0 mi NW 11.5 mph 17.3 mph N/A   Overcast
5:55 AM 53.6 °F 50.0 °F 88% 29.95 in 10.0 mi NW 10.4 mph 16.1 mph N/A   Overcast
6:15 AM 53.6 °F 53.6 °F 100% 29.96 in 3.0 mi NW 10.4 mph 21.9 mph N/A Rain Rain
6:35 AM 53.6 °F 53.6 °F 100% 29.96 in 10.0 mi NW 5.8 mph 17.3 mph N/A   Overcast
6:55 AM 53.6 °F 51.8 °F 94% 29.98 in 10.0 mi WNW 9.2 mph - N/A   Mostly Cloudy
7:15 AM 53.6 °F 51.8 °F 94% 29.98 in 10.0 mi WNW 9.2 mph - N/A   Overcast
7:35 AM 55.4 °F 51.8 °F 88% 30.00 in 10.0 mi NW 11.5 mph 17.3 mph N/A   Overcast
7:55 AM 55.4 °F 50.0 °F 82% 30.01 in 10.0 mi WNW 6.9 mph - N/A   Overcast
8:15 AM 55.4 °F 50.0 °F 82% 30.01 in 10.0 mi WNW 9.2 mph - N/A   Overcast
8:35 AM 57.2 °F 50.0 °F 77% 30.01 in 10.0 mi NNW 11.5 mph 16.1 mph N/A   Mostly Cloudy
8:55 AM 59.0 °F 46.4 °F 63% 30.01 in 10.0 mi NW 12.7 mph 23.0 mph N/A   Mostly Cloudy
9:15 AM 57.2 °F 46.4 °F 67% 30.03 in 10.0 mi NW 15.0 mph 21.9 mph N/A   Overcast
9:35 AM 60.8 °F 44.6 °F 55% 30.03 in 10.0 mi NNW 13.8 mph 27.6 mph N/A   Mostly Cloudy
9:55 AM 59.0 °F 44.6 °F 59% 30.05 in 10.0 mi NW 15.0 mph 23.0 mph N/A   Mostly Cloudy
10:15 AM 60.8 °F 44.6 °F 55% 30.05 in 10.0 mi WNW 11.5 mph 17.3 mph N/A   Mostly Cloudy
10:35 AM 60.8 °F 44.6 °F 55% 30.06 in 10.0 mi WNW 11.5 mph - N/A   Scattered Clouds
10:55 AM 62.6 °F 44.6 °F 52% 30.07 in 10.0 mi NW 15.0 mph 19.6 mph N/A   Scattered Clouds
11:15 AM 62.6 °F 42.8 °F 48% 30.08 in 10.0 mi West 12.7 mph 18.4 mph N/A   Scattered Clouds
11:35 AM 62.6 °F 42.8 °F 48% 30.09 in 10.0 mi West 15.0 mph 19.6 mph N/A   Scattered Clouds
11:55 AM 64.4 °F 42.8 °F 45% 30.09 in 10.0 mi West 12.7 mph 19.6 mph N/A   Clear
12:15 PM 64.4 °F 42.8 °F 45% 30.09 in 10.0 mi WNW 11.5 mph 33.4 mph N/A   Scattered Clouds
12:35 PM 64.4 °F 41.0 °F 42% 30.09 in 10.0 mi West 13.8 mph 21.9 mph N/A   Clear
12:55 PM 66.2 °F 41.0 °F 40% 30.09 in 10.0 mi West 11.5 mph 21.9 mph N/A   Clear
1:15 PM 68.0 °F 42.8 °F 40% 30.09 in 10.0 mi WNW 13.8 mph 19.6 mph N/A   Clear
1:35 PM 68.0 °F 42.8 °F 40% 30.09 in 10.0 mi NW 12.7 mph 18.4 mph N/A   Clear
1:55 PM 68.0 °F 42.8 °F 40% 30.09 in 10.0 mi NW 13.8 mph 33.4 mph N/A   Clear
2:15 PM 68.0 °F 41.0 °F 37% 30.09 in 10.0 mi WNW 11.5 mph 20.7 mph N/A   Scattered Clouds
2:35 PM 69.8 °F 41.0 °F 35% 30.09 in 10.0 mi WNW 12.7 mph 20.7 mph N/A   Clear
2:55 PM 69.8 °F 41.0 °F 35% 30.09 in 10.0 mi West 11.5 mph 20.7 mph N/A   Clear
3:15 PM 69.8 °F 44.6 °F 40% 30.09 in 10.0 mi West 13.8 mph 19.6 mph N/A   Clear
3:35 PM 69.8 °F 42.8 °F 38% 30.09 in 10.0 mi West 12.7 mph 23.0 mph N/A   Clear
3:55 PM 69.8 °F 42.8 °F 38% 30.09 in 10.0 mi WNW 12.7 mph 20.7 mph N/A   Clear
4:15 PM 69.8 °F 44.6 °F 40% 30.09 in 10.0 mi West 15.0 mph 18.4 mph N/A   Clear
4:35 PM 69.8 °F 44.6 °F 40% 30.09 in 10.0 mi West 11.5 mph 21.9 mph N/A   Clear
4:55 PM 69.8 °F 42.8 °F 38% 30.09 in 10.0 mi West 9.2 mph 16.1 mph N/A   Clear
5:15 PM 69.8 °F 42.8 °F 38% 30.09 in 10.0 mi NW 9.2 mph 16.1 mph N/A   Clear
5:35 PM 69.8 °F 42.8 °F 38% 30.08 in 10.0 mi West 16.1 mph 19.6 mph N/A   Clear
5:55 PM 69.8 °F 44.6 °F 40% 30.08 in 10.0 mi West 10.4 mph - N/A   Clear
6:15 PM 69.8 °F 42.8 °F 38% 30.08 in 10.0 mi NW 10.4 mph - N/A   Clear
6:35 PM 69.8 °F 44.6 °F 40% 30.08 in 10.0 mi West 5.8 mph - N/A   Clear
6:55 PM 68.0 °F 44.6 °F 43% 30.08 in 10.0 mi WNW 8.1 mph - N/A   Clear
7:15 PM 68.0 °F 46.4 °F 46% 30.08 in 10.0 mi West 10.4 mph - N/A   Clear
7:35 PM 66.2 °F 46.4 °F 49% 30.08 in 10.0 mi West 8.1 mph - N/A   Clear
7:55 PM 64.4 °F 46.4 °F 52% 30.08 in 10.0 mi West 5.8 mph - N/A   Clear
8:15 PM 62.6 °F 46.4 °F 55% 30.09 in 10.0 mi West 5.8 mph - N/A   Clear
8:35 PM 59.0 °F 48.2 °F 67% 30.09 in 10.0 mi West 4.6 mph - N/A   Clear
8:55 PM 57.2 °F 50.0 °F 77% 30.10 in 10.0 mi WSW 3.5 mph - N/A   Clear
9:15 PM 55.4 °F 50.0 °F 82% 30.10 in 10.0 mi Calm Calm - N/A   Clear
9:35 PM 53.6 °F 48.2 °F 82% 30.11 in 10.0 mi WSW 3.5 mph - N/A   Clear
9:55 PM 53.6 °F 48.2 °F 82% 30.11 in 10.0 mi SW 3.5 mph - N/A   Clear
10:15 PM 53.6 °F 48.2 °F 82% 30.11 in 10.0 mi SW 3.5 mph - N/A   Clear
10:35 PM 53.6 °F 48.2 °F 82% 30.12 in 10.0 mi Calm Calm - N/A   Clear
10:55 PM 51.8 °F 50.0 °F 94% 30.12 in 10.0 mi Calm Calm - N/A   Clear
11:15 PM 50.0 °F 50.0 °F 100% 30.13 in 10.0 mi Calm Calm - N/A   Clear
11:35 PM 50.0 °F 50.0 °F 100% 30.12 in 10.0 mi Calm Calm - N/A   Clear
11:55 PM 51.8 °F 50.0 °F 94% 30.12 in 10.0 mi Calm Calm - N/A   Clear